Location: Fernhill
(41.0167°S, 175.6333°E)
Time: 06:33:39
(UTC+00:00)

SeaSat 1 - Pass Details

Date: 08 November 2025
Orbit: 737 x 740 km, 108.0° (Epoch: 11 December)

Event Time Altitude Azimuth Distance (km) Brightness Sun altitude
Exits shadow 09:55:49 16° 116° (ESE) 1,879 4.4 -25.4°
Maximum altitude 09:56:54 17° 132° (SE) 1,822 4.5 -25.5°
Drops below altitude 10° 10:00:03 10° 172° (S) 2,280 5.6 -25.8°
Sets 10:03:01 0° 191° (S) 3,210 6.8 -26.1°
